ANIK G1                 
1 39127U 13014A   19265.48664005 -.00000082  00000-0  00000+0 0  9997
2 39127   0.0395 273.9664 0002117 308.2637 206.7276  1.00271561 23589
BREEZE-M R/B            
1 39128U 13014B   19264.32688698 -.00000127  00000-0  00000+0 0  9994
2 39128  13.8073 257.9851 4789649  92.4445 321.0581  1.90427714 44732
BREEZE-M DEB [TANK]     
1 39129U 13014C   19264.45609700 -.00000114  00000-0  62861-4 0  9990
2 39129  49.4576 356.4787 6067943 319.2261   8.5584  3.90934623 90749
BREEZE-M DEB            
1 43407U 13014D   19266.21778481 -.00000144  00000-0  00000+0 0  9998
2 43407  13.6660 252.4830 4818051 102.9559 313.2380  1.91512019 28250